KLM777 EHAM-TNCM

Flight info

Callsign KLM777
Flight time N/A
Altitude 38000
Route BERGI L60 PENIL M144 BAGSO DCT LIMRI/M081F380 DCT 51N020W 49N030W 44N040W/M081F400 34N050W 27N056W 22N060W DCT OBIKE/N0462F400 L335 TRNKY ULUBA1
Aircraft A332/H-SDE3GHIJ2J3J5M1RVWXY/LB2D1

Departure

Time N/A
Airport Amsterdam Airport Schiphol (EHAM)

Arrival

Time 2026-05-03 23:21
Airport Princess Juliana International Airport (TNCM)
Time Latitude Longitude Altitude Speed Heading
2026-05-03 22:57 18.12863 -63.22911 23810 ft 393 kts 240°
2026-05-03 22:57 18.11956 -63.24584 23370 ft 388 kts 241°
2026-05-03 22:57 18.08700 -63.30784 21702 ft 370 kts 242°
2026-05-03 22:58 18.07478 -63.33137 21050 ft 364 kts 242°
2026-05-03 22:58 18.06274 -63.35459 20397 ft 358 kts 242°
2026-05-03 22:58 18.05087 -63.37734 19746 ft 353 kts 240°
2026-05-03 22:58 18.03661 -63.39811 19088 ft 349 kts 229°
2026-05-03 22:59 18.01877 -63.41519 18438 ft 346 kts 217°
2026-05-03 22:59 17.99730 -63.42617 17772 ft 344 kts 197°
2026-05-03 22:59 17.97360 -63.42843 17126 ft 344 kts 176°
2026-05-03 22:59 17.95069 -63.42171 16477 ft 343 kts 155°
2026-05-03 23:00 17.93161 -63.40693 15828 ft 343 kts 135°
2026-05-03 23:00 17.91877 -63.38602 15178 ft 342 kts 114°
2026-05-03 23:00 17.91375 -63.36170 14538 ft 341 kts 95°
2026-05-03 23:00 17.91402 -63.33691 13901 ft 338 kts 88°
2026-05-03 23:01 17.91563 -63.31237 13246 ft 335 kts 87°
2026-05-03 23:01 17.91748 -63.28813 12596 ft 331 kts 86°
2026-05-03 23:01 17.91930 -63.26445 11954 ft 328 kts 86°
2026-05-03 23:01 17.92105 -63.24073 11304 ft 324 kts 86°
2026-05-03 23:02 17.92272 -63.21722 10653 ft 321 kts 86°
2026-05-03 23:02 17.92427 -63.19399 10004 ft 318 kts 86°
2026-05-03 23:02 17.92574 -63.17101 9478 ft 311 kts 86°
2026-05-03 23:02 17.92715 -63.14868 9068 ft 301 kts 86°
2026-05-03 23:03 17.92853 -63.12713 8665 ft 292 kts 86°
2026-05-03 23:03 17.92989 -63.10607 8260 ft 284 kts 86°
2026-05-03 23:03 17.93122 -63.08560 7857 ft 277 kts 86°
2026-05-03 23:03 17.93252 -63.06569 7471 ft 271 kts 86°
2026-05-03 23:04 17.93379 -63.04641 7251 ft 258 kts 86°
2026-05-03 23:04 17.93501 -63.02812 7170 ft 242 kts 86°
2026-05-03 23:04 17.93617 -63.01117 7138 ft 225 kts 86°
2026-05-03 23:04 17.93725 -62.99536 7131 ft 208 kts 86°
2026-05-03 23:05 17.93548 -62.98101 7080 ft 193 kts 114°
2026-05-03 23:05 17.92684 -62.97099 7126 ft 189 kts 148°
2026-05-03 23:05 17.91378 -62.96809 7198 ft 202 kts 181°
2026-05-03 23:05 17.90061 -62.97367 7252 ft 212 kts 213°
2026-05-03 23:06 17.89196 -62.98620 7187 ft 218 kts 247°
2026-05-03 23:06 17.88937 -63.00198 7226 ft 221 kts 264°
2026-05-03 23:06 17.88826 -63.01812 7171 ft 222 kts 265°
2026-05-03 23:06 17.88729 -63.03426 7144 ft 222 kts 265°
2026-05-03 23:07 17.88633 -63.05048 7142 ft 222 kts 265°
2026-05-03 23:07 17.88536 -63.06675 6706 ft 229 kts 265°
2026-05-03 23:07 17.88430 -63.08386 6024 ft 241 kts 265°
2026-05-03 23:07 17.88314 -63.10172 5430 ft 247 kts 266°
2026-05-03 23:08 17.88191 -63.11944 5157 ft 237 kts 265°
2026-05-03 23:08 17.88072 -63.13610 5058 ft 221 kts 265°
2026-05-03 23:08 17.87956 -63.15201 5047 ft 218 kts 265°
2026-05-03 23:08 17.87841 -63.16785 5055 ft 217 kts 265°
2026-05-03 23:09 17.87727 -63.18366 5058 ft 217 kts 265°
2026-05-03 23:09 17.87614 -63.19947 5058 ft 217 kts 265°
2026-05-03 23:09 17.87502 -63.21512 5059 ft 217 kts 265°
2026-05-03 23:09 17.87388 -63.23108 5059 ft 217 kts 265°
2026-05-03 23:10 17.87274 -63.24691 5059 ft 217 kts 265°
2026-05-03 23:10 17.87161 -63.26276 5059 ft 218 kts 265°
2026-05-03 23:10 17.87047 -63.27860 5058 ft 218 kts 265°
2026-05-03 23:10 17.86934 -63.29439 5059 ft 217 kts 265°
2026-05-03 23:11 17.86819 -63.31021 5059 ft 217 kts 265°
2026-05-03 23:11 17.86704 -63.32608 5059 ft 217 kts 265°
2026-05-03 23:11 17.86590 -63.34181 5059 ft 217 kts 265°
2026-05-03 23:11 17.86475 -63.35770 5066 ft 226 kts 265°
2026-05-03 23:12 17.86319 -63.37548 5103 ft 248 kts 265°
2026-05-03 23:12 17.86282 -63.39290 5010 ft 230 kts 277°
2026-05-03 23:12 17.86813 -63.40789 5016 ft 221 kts 303°
2026-05-03 23:12 17.87880 -63.41913 5058 ft 217 kts 329°
2026-05-03 23:13 17.89265 -63.42471 5084 ft 212 kts 351°
2026-05-03 23:13 17.90706 -63.42724 5084 ft 209 kts 355°
2026-05-03 23:13 17.92147 -63.42946 5056 ft 209 kts 355°
2026-05-03 23:13 17.93589 -63.43083 5029 ft 207 kts
2026-05-03 23:14 17.94936 -63.42665 4814 ft 202 kts 30°
2026-05-03 23:14 17.95981 -63.41709 4411 ft 198 kts 51°
2026-05-03 23:14 17.96851 -63.40578 3975 ft 200 kts 53°
2026-05-03 23:14 17.97700 -63.39437 3523 ft 202 kts 54°
2026-05-03 23:15 17.98328 -63.38106 3059 ft 201 kts 72°
2026-05-03 23:15 17.98721 -63.36731 2744 ft 196 kts 75°
2026-05-03 23:15 17.99066 -63.35375 2596 ft 183 kts 78°
2026-05-03 23:15 17.99282 -63.34113 2550 ft 171 kts 81°
2026-05-03 23:16 17.99476 -63.32905 2533 ft 170 kts 81°
2026-05-03 23:16 17.99673 -63.31678 2271 ft 169 kts 81°
2026-05-03 23:16 17.99867 -63.30471 2126 ft 168 kts 81°
2026-05-03 23:16 18.00063 -63.29254 2084 ft 169 kts 81°
2026-05-03 23:17 18.00260 -63.28036 2067 ft 169 kts 81°
2026-05-03 23:17 18.00495 -63.26821 2029 ft 170 kts 76°
2026-05-03 23:17 18.00850 -63.25632 1900 ft 170 kts 72°
2026-05-03 23:17 18.01241 -63.24459 1748 ft 170 kts 71°
2026-05-03 23:18 18.01639 -63.23284 1572 ft 170 kts 71°
2026-05-03 23:18 18.02009 -63.22102 1406 ft 170 kts 73°
2026-05-03 23:18 18.02328 -63.20906 1378 ft 170 kts 76°
2026-05-03 23:18 18.02599 -63.19698 1426 ft 171 kts 77°
2026-05-03 23:19 18.02774 -63.18835 1308 ft 172 kts 79°
2026-05-03 23:19 18.02980 -63.17615 1090 ft 170 kts 81°
2026-05-03 23:19 18.03173 -63.16374 843 ft 171 kts 80°
2026-05-03 23:19 18.03395 -63.15147 630 ft 171 kts 79°
2026-05-03 23:20 18.03614 -63.13992 413 ft 157 kts 79°
2026-05-03 23:20 18.03814 -63.12884 139 ft 147 kts 79°
2026-05-03 23:20 18.03954 -63.11847 60 ft 147 kts 81°
2026-05-03 23:20 18.04088 -63.10877 15 ft 99 kts 82°
2026-05-03 23:21 18.04126 -63.10595 15 ft 21 kts 87°
2026-05-03 23:21 18.04147 -63.10519 15 ft 5 kts 346°
2026-05-03 23:21 18.04128 -63.10576 15 ft 9 kts 238°
2026-05-03 23:21 18.04110 -63.10703 15 ft 19 kts 265°
2026-05-03 23:22 18.04072 -63.11020 15 ft 12 kts 270°
2026-05-03 23:22 18.04065 -63.11150 15 ft 24 kts 264°
2026-05-03 23:22 18.04050 -63.11268 15 ft 9 kts 266°
2026-05-03 23:23 18.04096 -63.11304 15 ft 11 kts 352°
2026-05-03 23:23 18.04191 -63.11316 15 ft 7 kts 352°
2026-05-03 23:23 18.04269 -63.11350 15 ft 15 kts 336°
2026-05-03 23:23 18.04315 -63.11363 15 ft 8 kts 350°
2026-05-03 23:24 18.04336 -63.11366 15 ft 0 kts 352°